TimeEDT,TemperatureF,Dew PointF,Humidity,Sea Level PressureIn,VisibilityMPH,Wind Direction,Wind SpeedMPH,Gust SpeedMPH,PrecipitationIn,Events,Conditions,WindDirDegrees,DateUTC
12:53 AM,50.0,45.0,83,30.07,10.0,Calm,Calm,-,N/A,,Clear,0,2012-10-08 04:53:00
1:53 AM,50.0,45.0,83,30.10,10.0,Calm,Calm,-,N/A,,Clear,0,2012-10-08 05:53:00
2:53 AM,50.0,45.0,83,30.10,10.0,Calm,Calm,-,N/A,,Clear,0,2012-10-08 06:53:00
3:53 AM,48.9,45.0,86,30.09,10.0,Calm,Calm,-,N/A,,Clear,0,2012-10-08 07:53:00
4:49 AM,50.0,44.6,82,30.10,10.0,North,4.6,-,N/A,,Mostly Cloudy,360,2012-10-08 08:49:00
4:53 AM,50.0,45.0,83,30.08,10.0,North,3.5,-,N/A,,Mostly Cloudy,360,2012-10-08 08:53:00
5:53 AM,48.9,46.0,90,30.07,10.0,Calm,Calm,-,N/A,,Overcast,0,2012-10-08 09:53:00
6:53 AM,48.9,46.9,93,30.08,10.0,Calm,Calm,-,N/A,,Overcast,0,2012-10-08 10:53:00
7:15 AM,50.0,46.4,87,30.10,10.0,Calm,Calm,-,N/A,,Overcast,0,2012-10-08 11:15:00
7:53 AM,51.1,46.9,86,30.12,10.0,Calm,Calm,-,N/A,,Overcast,0,2012-10-08 11:53:00
8:53 AM,51.1,46.9,86,30.15,10.0,NNW,4.6,-,N/A,,Overcast,330,2012-10-08 12:53:00
9:09 AM,51.8,46.4,82,30.17,10.0,North,3.5,-,N/A,,Overcast,350,2012-10-08 13:09:00
9:53 AM,51.1,46.9,86,30.17,9.0,North,5.8,-,N/A,,Overcast,360,2012-10-08 13:53:00
10:42 AM,51.8,48.2,88,30.20,8.0,Calm,Calm,-,N/A,,Overcast,0,2012-10-08 14:42:00
10:49 AM,51.8,48.2,88,30.20,7.0,NNW,3.5,-,N/A,,Overcast,330,2012-10-08 14:49:00
10:53 AM,51.1,48.0,89,30.19,7.0,Variable,4.6,-,N/A,,Overcast,0,2012-10-08 14:53:00
11:39 AM,51.8,48.2,88,30.19,8.0,NNW,3.5,-,N/A,,Overcast,340,2012-10-08 15:39:00
11:53 AM,50.0,48.0,93,30.17,8.0,North,6.9,-,N/A,,Overcast,350,2012-10-08 15:53:00
12:51 PM,53.6,48.2,82,30.16,10.0,North,4.6,-,N/A,,Overcast,10,2012-10-08 16:51:00
12:53 PM,54.0,48.9,83,30.15,10.0,NNE,5.8,-,N/A,,Overcast,30,2012-10-08 16:53:00
1:40 PM,55.4,48.2,77,30.16,10.0,Variable,3.5,-,N/A,,Overcast,0,2012-10-08 17:40:00
1:53 PM,55.0,48.9,80,30.14,10.0,Variable,3.5,-,N/A,,Overcast,0,2012-10-08 17:53:00
2:53 PM,53.1,48.9,86,30.13,10.0,Variable,3.5,-,N/A,,Overcast,0,2012-10-08 18:53:00
3:53 PM,54.0,48.9,83,30.12,10.0,Variable,4.6,-,N/A,,Overcast,0,2012-10-08 19:53:00
4:53 PM,53.1,48.9,86,30.12,10.0,North,5.8,-,N/A,,Overcast,360,2012-10-08 20:53:00
5:53 PM,53.1,48.9,86,30.12,10.0,North,5.8,-,N/A,,Overcast,360,2012-10-08 21:53:00
6:53 PM,53.1,48.0,83,30.12,10.0,NNW,4.6,-,N/A,,Overcast,340,2012-10-08 22:53:00
7:51 PM,51.8,46.4,82,30.14,10.0,North,3.5,-,N/A,,Overcast,10,2012-10-08 23:51:00
8:53 PM,52.0,46.9,83,30.14,10.0,Calm,Calm,-,N/A,,Overcast,0,2012-10-09 00:53:00
9:53 PM,51.1,48.0,89,30.14,10.0,Calm,Calm,-,N/A,,Overcast,0,2012-10-09 01:53:00
10:53 PM,51.1,46.9,86,30.14,10.0,Calm,Calm,-,N/A,,Overcast,0,2012-10-09 02:53:00
11:53 PM,51.1,46.9,86,30.15,10.0,NNW,4.6,-,N/A,,Overcast,340,2012-10-09 03:53:00